TimeCST,TemperatureF,Dew PointF,Humidity,Sea Level PressureIn,VisibilityMPH,Wind Direction,Wind SpeedMPH,Gust SpeedMPH,PrecipitationIn,Events,Conditions,WindDirDegrees,DateUTC
12:53 AM,59.0,55.9,90,30.32,10.0,Calm,Calm,-,N/A,,Scattered Clouds,0,2013-11-30 06:53:00
1:53 AM,57.9,55.0,90,30.30,10.0,Calm,Calm,-,N/A,,Mostly Cloudy,0,2013-11-30 07:53:00
2:53 AM,57.0,55.0,93,30.30,10.0,Calm,Calm,-,N/A,,Clear,0,2013-11-30 08:53:00
3:53 AM,57.0,54.0,89,30.29,10.0,Calm,Calm,-,N/A,,Clear,0,2013-11-30 09:53:00
4:53 AM,59.0,57.0,93,30.28,10.0,Calm,Calm,-,N/A,,Overcast,0,2013-11-30 10:53:00
5:53 AM,60.1,57.0,90,30.29,10.0,NNW,4.6,-,0.00,Rain,Light Rain,340,2013-11-30 11:53:00
6:53 AM,60.1,57.9,93,30.30,10.0,NNE,4.6,-,0.01,,Overcast,30,2013-11-30 12:53:00
7:53 AM,62.1,60.1,93,30.31,10.0,Calm,Calm,-,0.01,,Overcast,0,2013-11-30 13:53:00
8:53 AM,64.0,61.0,90,30.32,10.0,Calm,Calm,-,0.00,Rain,Light Rain,0,2013-11-30 14:53:00
9:53 AM,70.0,64.9,84,30.32,10.0,ENE,3.5,-,0.00,,Overcast,70,2013-11-30 15:53:00
10:53 AM,71.1,63.0,75,30.31,10.0,East,3.5,-,N/A,,Overcast,100,2013-11-30 16:53:00
11:53 AM,73.0,62.1,68,30.29,10.0,East,8.1,-,N/A,,Overcast,100,2013-11-30 17:53:00
12:53 PM,73.9,60.1,62,30.27,10.0,East,9.2,-,N/A,,Overcast,100,2013-11-30 18:53:00
1:53 PM,70.0,62.1,76,30.24,10.0,Calm,Calm,-,0.00,,Overcast,0,2013-11-30 19:53:00
2:22 PM,71.6,60.8,69,30.22,10.0,ESE,6.9,-,N/A,,Overcast,110,2013-11-30 20:22:00
2:53 PM,70.0,60.1,71,30.21,10.0,ESE,8.1,-,0.00,,Overcast,110,2013-11-30 20:53:00
3:53 PM,71.1,60.1,68,30.21,10.0,SSE,8.1,-,N/A,,Overcast,150,2013-11-30 21:53:00
4:53 PM,70.0,59.0,68,30.21,10.0,SSE,5.8,-,N/A,,Overcast,150,2013-11-30 22:53:00
5:53 PM,68.0,60.1,76,30.21,10.0,SE,4.6,-,N/A,,Overcast,140,2013-11-30 23:53:00
6:53 PM,66.9,60.1,79,30.22,10.0,ESE,4.6,-,N/A,,Overcast,120,2013-12-01 00:53:00
7:53 PM,66.9,60.1,79,30.23,10.0,Calm,Calm,-,N/A,,Overcast,0,2013-12-01 01:53:00
8:53 PM,66.0,60.1,81,30.22,10.0,East,4.6,-,N/A,,Overcast,100,2013-12-01 02:53:00
9:53 PM,66.0,59.0,78,30.22,10.0,SSE,3.5,-,N/A,,Overcast,150,2013-12-01 03:53:00
10:53 PM,64.0,59.0,84,30.22,10.0,Calm,Calm,-,N/A,,Overcast,0,2013-12-01 04:53:00
11:53 PM,64.9,60.1,84,30.21,10.0,SE,3.5,-,N/A,,Overcast,140,2013-12-01 05:53:00